Miscellaneous Local Product
Issued by NWS Hastings, NE

Home | Current Version | Previous Version | Text Only | Print | Product List | Glossary Off
Versions: 1 2 3 4 5 6 7 8 9 10 11 12 13 14 15 16 17 18 19 20 21 22 23 24 25 26 27 28 29 30 31 32 33 34 35 36 37 38 39 40 41 42 43 44 45 46 47 48 49 50

000
AXUS43 KGID 010902
MISGRI

GID CWA HOURLY WEATHER ROUNDUP
NATIONAL WEATHER SERVICE HASTINGS NE
400 AM CDT MON SEP 01 2014

NOTE: "FAIR" INDICATES FEW OR NO CLOUDS BELOW 12,000 FEET WITH NO
SIGNIFICANT WEATHER AND/OR OBSTRUCTIONS TO VISIBILITY.

...SOUTH CENTRAL NEBRASKA...

CITY           SKY/WX    TMP DP  RH WIND       PRES   REMARKS
GRAND ISLAND   CLEAR     60  55  83 W12       29.80R
HASTINGS       CLEAR     61  53  75 NW9       29.80R
KEARNEY        PTCLDY    57  54  88 W9        29.86R
ORD            CLEAR     58  55  90 W8        29.83R
YORK           CLEAR     63 N/A N/A W9        29.76S
AURORA         CLEAR     60  57  91 NW10      29.78S
LEXINGTON      CLEAR     56  54  93 W6        29.89R
HOLDREGE       PTCLDY    58  55  88 NW9       29.86R
HEBRON         PTCLDY    65  61  86 SW3       29.77S

...NEBRASKA PANHANDLE...

CITY           SKY/WX    TMP DP  RH WIND       PRES   REMARKS
CHADRON        CLEAR     50  48  93 W7        29.94S
ALLIANCE       CLEAR     45  44  97 NW7       29.96S
SCOTTSBLUFF    CLEAR     50  48  93 N9        29.98F
SIDNEY         CLEAR     50  45  83 NW12      30.00R

...WESTERN AND NORTH CENTRAL NEBRASKA...

CITY           SKY/WX    TMP DP  RH WIND       PRES   REMARKS
VALENTINE      CLEAR     54  53  97 W13       29.86R
AINSWORTH      CLEAR     54  53  97 W7        29.86R
ONEILL         CLEAR     58  57  97 W10       29.81R
BROKEN BOW     CLEAR     56  53  90 NW9       29.87R
IMPERIAL       PTCLDY    54  50  86 W3        29.95R
NORTH PLATTE   CLEAR     51  50  96 NW8       29.92R
MCCOOK         CLEAR     57  53  86 W9        29.93R

...EASTERN NEBRASKA...

CITY           SKY/WX    TMP DP  RH WIND       PRES   REMARKS
NORFOLK        CLEAR     60  58  92 W7        29.76R
SO SIOUX CITY  PTCLDY    63  61  93 NW6       29.72R
TEKAMAH        MOCLDY    65  64  97 SW5       29.72S
ALBION         CLEAR     59  56  90 NW6       29.78S
OMAHA EPPLEY   CLOUDY    69  64  84 S8        29.72R
OFFUTT AFB     CLOUDY    68  68  99 SW3       29.72R
MILLARD        CLOUDY    68  65  90 SW3       29.71S
LINCOLN        MOCLDY    67  65  93 SW7       29.74R
NEBRASKA CITY  CLOUDY    67  67 100 SW13      29.72S
BEATRICE       MOCLDY    66  65  96 W7        29.76R
FALLS CITY     CLOUDY    68  66  93 W12G23    29.77R

...NORTHERN KANSAS...

CITY           SKY/WX    TMP DP  RH WIND       PRES   REMARKS
GOODLAND       CLEAR     54  50  86 N8        29.97S
HILL CITY      CLEAR     62  58  86 NW8       29.87R
NORTON         SUNNY     59  52  77 NW14      29.86R
PHILLIPSBURG   CLEAR     63  61  94 W7        29.83R
SMITH CENTER   CLEAR     61  61 100 NW7       29.82R
HAYS           PTCLDY    63  57  82 NW6       29.84R
RUSSELL        PTCLDY    64  63  96 CALM      29.82R
CONCORDIA      CLOUDY    65  64  97 SW10      29.79F
SALINA         CLOUDY    64  61  90 S9        29.82R
TOPEKA         TSTM      68  67  96 SE20      29.74F



USA.gov is the U.S. government's official web portal to all federal, state and local government web resources and services.